星链-6364 (STARLINK-6364 )

导读

STARLINK-6364是美国SpaceX公司星链星座中的第二代卫星,于2023年7月16日发射升空。星链计划旨在构建近地轨道巨型卫星星座,为全球偏远、无网络覆盖区域提供高速低延迟宽带互联网服务。该卫星配备氪离子推进系统与激光星间链路,可实现自主轨道维持与避碰,设计寿命约5-7年,服役后将进一步完善星链星座的全球覆盖与通信能力。

Basic Information
目录编号:
57378
目录名称:
STARLINK-6364
国际标识:
2023-099BC
轨道中心:
EARTH
卫星名称:
星链-6364
卫星全名:
星链-6364 (STARLINK-6364 )
卫星状态:
在轨 (已飞行1064 天)
发射日期:
2023-07-16 UTC
国别 :
美国 (US)
星等 :
--
Orbit Information
数据来源 国际轨道数据 AOE轨道数据
星历时间 2026-06-14T15:24:46+0800
15小时前
查看轨道信息
2026-06-14T08:00:00+0800
22小时前
查看轨道信息
半长轴 6861.199km 6861.187km
偏心率 0.0001415 0.0001728
轨道倾角 43.004° 43.002°
近地点辐角 252.941° 242.869°
升交点赤经 26.805° 28.552°
平近点角 107.129° 216.663°
近地点 482.091km 481.864km
远地点 484.033km 484.236km
周期 94.267分钟 94.267分钟
每日圈数 15.275759 15.275799
Detailed Information
固有亮度:
5
最大亮度:
2.5
卫星平台:
Starlink v1.5
覆盖范围:
全球
运营商:
太空探索技术公司
运营商所在国:
美国
制造商(研发单位):
太空探索技术公司
制造商所在国:
美国
使用方式:
暂无
Satellite Introduction
星链(Starlink)计划是由太空探索技术公司(SpaceX)提出的一个巨型低轨卫星互联网星座项目,计划在2019年至2024年间在太空搭建由约1.2万颗卫星组成的“星链”网络,其中1584颗将部署在地球上空550千米处的近地轨道,并从2020年开始工作。该卫星仍在工作。
2D Orbit Map
3D Orbit Map
Orbit Altitude Analysis Chart
Orbit Inclination Analysis Chart
Orbit Comprehensive Analysis Chart
View Comprehensive Chart